Regional Weather Roundup
Issued by NWS Jackson, KY

Home | Current Version | Previous Version | Text Only | Print | Product List | Glossary On
Versions: 1 2 3 4 5 6 7 8 9 10 11 12 13 14 15 16 17 18 19 20 21 22 23 24 25 26 27 28 29 30 31 32 33 34 35 36 37 38 39 40 41 42 43 44 45 46 47 48 49 50
000
ASUS43 KJKL 301019
RWRJKL

EAST KENTUCKY HOURLY WEATHER ROUNDUP
NATIONAL WEATHER SERVICE JACKSON KY
600 AM EDT TUE SEP 30 2014

NOTE: "FAIR" INDICATES FEW OR NO CLOUDS BELOW 12,000 FEET WITH
NO SIGNIFICANT WEATHER AND/OR OBSTRUCTIONS TO VISIBILITY.

* THESE REPORTS ARE NOT UNDER NWS QUALITY CONTROL AND MAY NOT
  REPORT WEATHER SUCH AS PRECIPITATION AND FOG.

KYZ079-080-083-085-087-088-110-112-115-119-120-301100
...EASTERN KENTUCKY...

CITY           SKY/WX    TMP DP  RH WIND       PRES   REMARKS
JACKSON        CLEAR     60  57  89 CALM      29.96R FOG
LONDON         FOG       57  56  96 CALM      29.97R VSB 1/4
SOMERSET*      FOG       57  57 100 CALM      29.97R VSB 1/4
MONTICELLO*    FOG       52  52 100 CALM      29.98R VSB<1/4
WILLIAMSBURG*  CLOUDY    55  55 100 CALM      29.97
MIDDLESBORO*   FOG       58  58 100 CALM      29.98S VSB 1/4
HARLAN APT*    CLOUDY    59  57  94 CALM      29.99S VSB 1/4
HAZARD APT*    FOG       57  57 100 CALM      29.96R VSB 1
BLACK MTN*       N/A     57  54  88 SE1         N/A
PIKEVILLE APT* FOG       57  57 100 CALM      29.96R VSB 0
BIG SANDY*     FOG       58  58 100 SW3       29.95R VSB 3/4
MOREHEAD APT*  MOSUNNY   54  52  94 CALM      29.96S FOG
$$

KYZ035-036-041-042-044-050-067-078-099-301100
...CENTRAL KENTUCKY...

CITY           SKY/WX    TMP DP  RH WIND       PRES   REMARKS
MT STERLING*   CLEAR     52  52 100 SW5       29.96S FOG
FLEMING/MASON* CLEAR     55  52  88 CALM      29.95S
DANVILLE*      CLEAR     52  50  93 CALM      29.96S
RICHMOND*      CLEAR     52  50  93 CALM      29.95S
LEXINGTON      CLEAR     55  50  83 S3        29.95R
FRANKFORT      CLEAR     51  49  92 CALM      29.93S
$$

KYZ091>093-OHZ055-061-077-WVZ005-015-034-035-042-301100
...SOUTHERN OHIO/WEST VIRGINIA...

CITY           SKY/WX    TMP DP  RH WIND       PRES   REMARKS
COVINGTON      CLEAR     56  51  84 CALM      29.92S
COLUMBUS       CLEAR     54  50  86 CALM      29.90S
DAYTON         PTCLDY    56  50  80 W6        29.93R
WILMINGTON     CLEAR     51  48  89 S3        29.92S
HUNTINGTON     FOG       55  55 100 CALM      29.92R VSB 1/4
CHARLESTON     FOG       59  58  96 CALM      29.92S VSB 1/2
PINEVILLE*     FOG       59  59 100 MISG      30.02S VSB 1/2
BECKLEY        CLEAR     56  54  93 S3        29.99R
BLUEFIELD      CLEAR     58  54  86 W8        30.01R
$$

VAZ002-007-008-TNZ017-027-036-066-071-301100
...SOUTHWEST VIRGINIA/EAST TENNESSEE...

CITY           SKY/WX    TMP DP  RH WIND       PRES   REMARKS
WISE*          FOG       57  57 100 SW3       30.02S VSB 1/4
JONESVILLE*    FOG       55  55 100 CALM      30.00S VSB<1/4
ABINGDON*      CLOUDY    55  55 100 CALM      30.00R FOG
BRISTOL        FOG       53  51  93 CALM      29.99R VSB 1/4
KNOXVILLE      MOCLDY    60  58  92 CALM      29.96R
OAK RIDGE      FOG       62  61  96 CALM      29.98R VSB 1/2
CROSSVILLE     CLEAR     58  53  84 CALM      29.99S HAZE
NASHVILLE      CLEAR     61  59  93 CALM      29.95R
$$

...KEY TO REMARKS...
VSB - VISIBILITY IN MILES
WCI - WIND CHILL INDEX
HX  - HEAT INDEX

$$


USA.gov is the U.S. government's official web portal to all federal, state and local government web resources and services.